sat.trackr.live / text

‹ back to catalog

ONEWEB-0062

NORAD 45163 · 2020-008AJ

PAYLOAD ACTIVE UNKNOWN

§ Identity

Operator
Country
UK
Launch date
2020-02-06
Launch site
TYMSC
Launch vehicle
Mass (kg)
RCS (m²)

Purposes: comms

External: N2YO · Heavens-Above · Gunter

§ Orbital elements

Epoch: 2026-05-25T04:05:18.881088Z

Period
109.89 min
Inclination
87.8858°
Eccentricity
0.0001435
Mean motion
13.10370192 rev/d
Perigee alt
1,220.6 km
Apogee alt
1,222.8 km
Semi-major
7,599.9 km
B*
1.2682e-3
RAAN
40.8462°
Arg perigee
72.5809°
Mean anomaly
287.5475°
Rev number
30,517

§ Raw data

ONEWEB-00621 45163U 20008AJ  26145.17035742  .00000455  00000+0  12682-2 0  99902 45163  87.8858  40.8462 0001435  72.5809 287.5475 13.10370192305174

JSON: /api/v1/satellites/45163 · /tle

For live sub-satellite position, see the globe view (requires WebGL).

§ Visibility from observer

Set your observer location to see the next 7 days of passes ≥ 10°. The values pass through the URL so the page stays shareable.

No JS? Fill the form by hand. The geolocation button needs JavaScript.